Presure
151 164 167 166 165 178 165 143 106 128 195 221 113 206 210 123 171 108 125 126 145 134 152 131 148 149 148 144 133 132 137 120 157 125 125 159 150 148 128 128 132 126 125 120
149 159 161 158 159 158 171 163 158 85 169 188 216 189 174 202 182 174 144 136 125 123 131 128 139 137 140 134 145 142 143 153 146 154 130 145 143 134 127 141 127 125 131 130
160 160 165 152 154 156 165 160 161 150 99 94 189 215 174 188 190 214 218 171 133 120 124 131 133 132 133 139 140 134 148 146 144 157 137 115 137 154 123 120 118 116 111 137
178 178 173 166 175 123 167 164 169 159 165 170 182 185 193 163 136 172 213 176 209 176 150 131 121 128 143 137 131 124 126 121 113 112 167 132 132 150 120 117 125 135 117 129
200 189 153 81 92 150 159 156 168 164 156 89 172 174 162 190 181 189 164 187 166 155 215 159 131 137 135 130 151 154 104 146 155 151 148 122 120 115 117 133 120 139 125 148
202 185 180 177 71 169 151 156 160 157 165 158 158 165 164 160 154 183 188 190 166 152 187 210 158 158 118 147 140 133 96 113 131 157 126 121 119 117 124 123 139 138 138 157
225 190 186 177 181 185 175 144 157 144 130 164 158 156 137 171 173 170 178 181 182 146 204 212 212 219 221 127 144 125 157 126 129 125 119 123 121 119 127 140 143 148 179 134
232 228 201 177 176 186 140 117 159 153 171 158 152 151 166 170 180 170 187 175 177 180 186 185 177 187 192 185 154 227 258 127 129 123 129 129 152 153 152 138 152 203 234 191
198 186 91 97 187 181 180 175 177 175 165 164 161 169 170 86 91 196 206 186 154 110 178 144 168 195 187 223 212 133 118 266 135 121 128 126 143 143 169 157 142 315 313 245
221 149 176 153 178 179 177 164 183 161 168 170 161 174 152 177 182 142 112 95 145 101 172 197 137 214 135 202 196 216 222 201 189 137 127 254 127 116 126 122 128 198 184 144
224 207 204 187 179 180 137 177 175 181 171 165 163 184 158 165 172 188 197 177 182 195 181 188 183 188 223 119 126 129 135 240 134 121 265 125 129 234 135 222 136 176 130 137
268 228 212 208 189 191 185 182 155 180 161 224 156 188 178 163 193 186 179 181 183 124 163 201 184 186 186 145 163 188 249 254 262 138 122 271 143 152 153 126 161 153 124 174
327 297 249 214 208 223 185 180 180 181 190 174 192 202 215 204 177 165 177 171 209 186 166 178 153 176 88 213 197 196 202 266 270 273 253 182 178 172 133 244 172 193 173 160
437 436 328 281 232 211 202 209 104 197 192 195 175 198 187 198 204 218 210 188 202 176 207 148 192 170 184 164 207 136 159 270 229 217 181 179 170 182 152 151 163 163 160 142
404 401 445 326 283 256 220 201 198 198 194 197 210 191 175 178 207 230 227 201 192 179 211 110 162 205 200 213 257 185 270 259 270 242 175 177 182 156 140 184 197 178 178 156
380 348 346 357 309 274 265 164 202 200 199 206 204 191 189 185 191 185 213 220 145 179 163 174 177 190 133 242 202 244 256 222 126 179 162 154 152 156 161 141 186 151 165 156
302 311 315 346 319 300 277 236 213 216 212 219 353 273 216 198 204 205 160 185 209 193 221 162 153 228 273 245 197 236 214 207 169 173 139 203 137 164 130 125 154 100 174 166
290 283 412 318 299 261 271 222 214 206 213 211 227 230 224 252 256 235 226 211 220 233 151 171 208 258 243 203 190 218 180 203 179 159 165 133 144 134 131 181 176 194 121 187
291 300 309 235 237 268 239 219 233 218 217 221 205 211 186 207 206 217 226 213 186 176 265 236 234 244 226 220 186 208 247 195 187 172 180 169 144 169 127 125 181 110 114 140
257 286 271 249 235 262 279 237 210 243 229 222 239 225 228 225 234 234 234 234 204 232 190 151 208 241 239 197 204 232 208 216 191 194 188 159 179 148 164 166 157 125 120 125
266 241 248 273 246 244 235 220 222 221 216 249 241 221 246 251 244 172 234 166 181 166 227 204 213 217 225 202 189 236 211 195 184 196 164 215 166 136 201 211 192 156 199 158
265 243 236 242 267 252 249 238 237 245 262 239 211 245 237 230 234 160 219 178 203 204 206 213 223 210 179 198 201 186 209 203 176 183 166 187 196 162 206 180 197 159 155 180
259 252 250 231 246 258 267 250 229 229 236 238 244 230 238 238 222 196 156 240 225 222 226 187 211 205 184 182 200 224 202 212 227 178 170 161 175 207 166 185 167 162 162 190
235 242 259 255 231 235 232 249 263 192 255 244 245 256 229 216 206 221 238 229 225 223 201 215 220 225 228 166 194 162 233 195 197 180 167 202 162 166 176 196 164 199 193 202
238 237 244 235 225 221 229 224 232 232 248 252 250 237 227 182 217 209 218 215 229 226 188 227 206 235 226 231 189 233 211 198 196 181 161 179 167 205 186 168 185 193 169 178
231 237 236 223 237 221 226 233 234 225 229 227 237 200 219 218 214 214 224 216 223 216 212 197 219 207 226 191 200 192 187 200 240 199 171 170 171 181 192 175 201 177 206 180
232 224 226 223 225 236 218 227 218 225 227 230 234 235 218 215 214 211 209 225 224 210 198 173 208 230 215 226 218 228 203 194 197 174 180 186 201 199 181 196 202 194 179 181
Wind_Speed
69 61 53 50 48 45 47 39 14 37 46 40 36 35 30 54 52 33 47 51 56 57 56 48 52 51 48 45 40 37 37 29 35 32 30 35 27 26 34 33 29 34 36 35
72 69 62 57 53 54 48 51 60 21 50 51 40 52 44 36 43 54 60 57 54 51 56 50 52 52 48 44 44 42 41 41 35 37 31 36 31 30 30 29 31 36 37 43
79 76 63 63 63 63 59 57 58 54 31 20 51 38 54 52 48 37 42 58 60 42 51 50 52 49 48 46 45 39 43 41 37 39 37 29 31 36 31 35 38 35 29 43
72 73 67 55 62 43 61 55 54 63 64 61 57 49 48 70 48 57 42 52 56 62 64 60 44 48 55 48 47 42 42 37 32 27 52 37 32 35 35 39 44 47 43 51
78 76 73 15 17 66 70 62 58 64 67 26 62 59 48 57 62 60 71 63 55 62 57 70 58 58 55 51 55 53 39 52 54 45 37 36 40 37 40 47 43 51 54 54
82 74 69 72 14 76 67 65 70 69 71 70 67 62 68 59 53 66 64 65 78 62 66 67 69 67 37 57 54 53 27 39 42 51 40 41 40 40 47 45 52 56 59 62
93 78 76 75 77 77 75 73 67 60 52 75 74 68 60 72 72 72 73 71 74 69 69 65 71 69 69 52 63 54 60 50 47 44 43 47 46 47 54 53 55 56 63 60
97 85 76 75 82 81 47 31 74 66 76 79 78 72 78 80 74 72 79 77 76 79 76 75 70 70 73 76 67 69 61 56 56 46 49 50 59 54 56 55 65 66 69 58
87 73 20 19 87 82 75 76 79 80 83 81 81 78 81 21 22 64 66 79 62 38 78 64 56 69 68 66 65 63 42 56 61 39 51 49 57 59 60 59 59 58 63 35
95 57 73 66 86 83 80 83 79 86 83 78 80 79 78 80 81 60 37 17 49 24 77 67 60 64 57 73 65 66 64 63 64 56 56 60 49 34 42 40 49 30 30 51
99 88 89 88 93 88 50 83 83 82 88 83 83 80 84 83 81 75 67 88 81 74 78 84 70 64 61 44 54 52 60 57 51 38 55 45 57 56 64 35 57 31 50 40
113 99 94 93 95 92 89 90 68 86 71 84 58 85 86 91 78 85 86 78 90 36 61 67 62 62 49 51 38 47 62 63 56 53 39 53 56 34 44 49 42 40 42 37
116 117 104 99 95 96 89 91 88 85 87 85 66 80 81 85 96 90 93 84 77 57 33 40 62 48 19 73 67 55 53 57 55 55 46 47 45 52 56 49 54 32 44 38
36 32 106 111 102 98 92 91 29 93 94 98 94 81 87 82 81 80 79 78 79 79 65 42 63 54 44 35 60 41 56 54 44 43 54 52 53 33 57 69 59 65 64 58
28 28 41 98 102 100 100 95 95 95 96 96 95 93 98 92 82 83 84 86 79 61 78 24 55 64 58 65 64 64 56 48 47 41 55 54 45 65 65 42 32 50 53 43
34 42 45 56 87 95 96 56 96 97 102 98 101 104 102 103 98 89 68 64 48 80 66 56 61 65 28 62 45 53 49 43 50 49 48 62 71 77 83 64 63 60 70 71
18 21 17 50 71 81 80 78 87 83 88 91 68 85 103 104 98 92 61 77 79 79 80 58 72 66 60 58 56 42 53 54 59 44 63 60 52 97 46 43 85 25 73 80
27 44 34 46 67 76 73 90 99 99 103 102 75 82 81 88 92 100 96 88 84 83 69 48 69 61 67 64 67 54 64 69 78 78 69 54 66 57 60 80 91 78 45 76
17 29 59 62 74 78 97 82 87 101 100 95 86 73 80 73 77 82 85 83 69 68 67 68 73 64 66 66 72 63 50 74 85 64 93 84 56 62 51 49 88 36 41 54
18 21 59 63 59 68 77 73 73 101 111 98 91 94 90 88 87 86 83 80 73 71 63 72 71 68 66 80 70 56 67 58 87 88 95 61 90 67 72 74 65 55 48 56
38 39 32 71 65 72 78 81 81 74 73 77 72 72 77 73 70 54 57 61 62 68 72 63 68 78 72 84 84 70 72 92 97 91 67 75 75 55 93 86 89 61 96 60
19 48 54 56 65 81 78 87 83 72 73 63 65 61 66 65 58 61 69 70 68 69 68 72 78 81 76 90 84 80 82 91 92 104 72 95 84 71 91 87 93 67 65 96
12 31 55 44 43 61 70 81 71 55 59 61 71 62 70 68 63 61 70 62 70 76 76 69 73 77 90 94 93 84 96 86 81 104 89 70 77 92 75 75 76 77 76 117
22 22 26 36 38 36 37 37 61 54 78 72 76 73 66 73 77 65 65 68 71 76 78 77 74 83 81 72 101 66 87 109 111 117 88 100 74 78 94 103 78 112 108 112
30 32 36 41 49 52 40 54 44 50 41 46 51 62 63 59 75 76 73 74 73 77 69 86 72 84 86 85 99 86 110 115 114 122 71 95 84 105 115 89 116 115 89 107
34 31 37 49 43 53 43 42 47 56 56 61 57 71 72 77 77 72 78 81 82 81 76 77 81 72 85 93 104 108 108 119 93 126 101 96 100 115 123 106 89 117 119 113
47 50 49 51 51 50 60 55 64 62 63 63 67 71 81 84 85 72 80 89 90 87 72 72 83 94 88 94 95 97 113 121 118 91 107 135 127 124 127 130 126 133 114 97
Wind_Direction
224 209 202 208 215 214 219 227 239 230 237 241 229 219 219 237 226 239 235 235 232 235 237 241 232 235 237 236 241 246 251 244 259 251 259 272 269 265 272 282 287 286 290 289
234 220 205 208 216 221 218 226 230 232 237 244 234 222 225 214 228 230 232 232 240 249 245 252 238 244 241 246 244 245 249 254 257 262 265 267 262 264 271 275 282 287 291 288
223 223 220 217 218 221 220 222 231 239 231 196 236 227 230 227 224 234 237 236 233 244 252 249 245 254 255 252 255 260 255 258 253 261 261 271 263 267 271 273 275 277 277 286
222 225 222 213 221 232 220 222 228 241 244 248 249 235 233 238 243 238 238 238 241 242 237 244 254 254 247 250 256 260 262 257 248 256 269 262 265 272 268 268 274 282 283 287
223 224 229 174 240 234 223 226 224 231 243 224 247 245 246 250 240 243 241 242 244 239 250 248 246 244 245 250 250 251 240 255 261 262 262 254 256 259 262 273 271 280 278 287
222 221 217 219 212 220 233 227 227 233 234 244 246 248 249 249 250 253 251 250 248 248 254 257 246 246 238 243 246 247 261 250 254 263 257 261 264 265 271 274 271 274 278 294
228 216 218 220 223 224 222 234 230 230 234 238 248 248 250 254 254 252 255 253 251 243 258 260 262 263 263 251 249 244 257 252 250 254 264 265 271 276 273 266 268 275 285 282
229 225 220 221 226 224 218 214 232 234 228 237 246 250 249 253 253 253 252 257 258 259 261 258 258 259 263 260 251 266 270 249 250 250 255 260 267 268 272 263 278 279 283 286
226 218 205 206 228 226 221 217 219 225 230 230 235 240 244 218 223 255 248 250 255 247 262 249 252 261 262 269 264 248 253 268 253 264 269 271 267 267 267 269 273 275 276 295
226 216 217 222 229 228 226 223 224 226 226 231 237 235 246 243 242 246 253 243 251 244 261 262 246 267 256 268 269 279 273 264 262 257 266 266 260 265 275 264 268 265 265 280
227 222 217 219 228 227 228 230 231 230 232 237 236 235 243 245 248 245 250 251 256 249 257 260 264 268 266 261 261 261 259 270 267 256 265 261 274 225 273 259 277 264 279 283
232 223 222 219 221 224 227 231 229 233 234 242 240 240 238 243 246 241 245 247 250 247 260 258 263 265 239 265 239 278 265 268 260 266 279 261 266 255 271 273 255 249 276 252
229 231 225 221 220 224 222 228 230 231 235 234 239 247 248 247 237 250 244 251 251 248 219 246 234 217 245 276 253 274 275 271 266 258 248 215 228 240 282 249 239 202 249 262
174 185 220 228 221 222 223 225 231 231 234 236 234 236 235 242 245 246 244 242 245 254 253 220 263 236 256 272 263 265 266 265 263 243 212 215 228 210 257 265 255 253 252 274
146 148 172 218 222 226 222 222 228 231 232 234 235 239 240 241 242 246 247 245 248 237 257 231 224 259 257 269 262 263 265 259 270 233 221 221 224 252 275 217 271 223 240 238
147 161 195 201 213 217 222 241 228 230 235 235 236 232 234 238 239 236 238 238 235 245 238 236 253 245 242 260 258 254 256 222 272 210 232 250 258 255 251 268 224 284 241 265
123 107 191 193 196 205 211 209 218 222 222 233 240 232 236 238 241 244 239 241 250 246 259 230 241 252 255 247 227 232 207 203 213 193 253 241 268 251 282 277 261 268 251 263
150 164 192 174 190 203 191 206 216 225 228 233 228 226 235 234 238 244 247 246 250 250 234 241 246 246 241 216 230 211 225 207 207 229 218 263 253 265 275 240 248 237 291 246
158 170 174 191 197 199 200 218 213 221 226 227 238 227 234 242 246 250 250 245 237 235 238 235 236 238 237 212 229 215 245 218 215 230 222 232 262 255 276 275 242 277 284 272
191 172 173 181 202 208 200 200 221 222 225 230 229 235 238 243 244 243 241 243 237 239 232 247 238 236 235 224 210 237 216 216 215 217 217 264 232 259 256 257 269 277 280 284
155 169 181 200 200 207 199 215 223 229 231 235 242 240 235 234 236 217 227 222 237 233 226 240 239 230 231 220 229 236 223 219 218 224 257 223 266 268 233 238 237 275 242 280
206 188 187 198 208 212 216 216 225 232 235 230 223 225 225 228 231 224 227 237 235 235 235 233 236 231 239 224 231 229 222 222 226 221 259 235 239 269 231 246 241 279 282 249
174 193 204 217 214 209 214 222 225 232 230 241 234 233 234 230 226 236 241 227 225 228 230 238 238 233 232 235 229 239 226 237 235 233 254 247 257 233 273 261 275 259 280 246
208 207 208 196 197 204 215 230 234 241 237 248 246 248 221 224 234 232 231 227 227 230 237 239 242 241 243 252 231 261 246 227 230 233 260 235 271 276 265 242 277 240 249 248
207 216 212 205 212 218 217 222 223 226 228 234 241 231 226 226 231 236 236 236 231 232 236 237 247 250 245 250 235 249 232 232 231 235 263 250 270 247 247 274 251 248 277 266
225 223 223 223 225 224 224 224 224 224 232 228 236 242 230 233 238 238 236 239 236 236 235 237 240 241 249 235 236 238 241 239 255 237 259 264 267 255 245 268 270 271 255 269
228 230 226 228 231 228 232 229 230 229 230 234 233 234 235 238 241 247 249 244 242 243 245 256 248 243 246 249 255 254 242 241 243 256 253 249 247 248 260 261 255 253 270 275